Regional Weather Roundup
Issued by NWS

Home | Current Version | Previous Version | Text Only | Print | Product List | Glossary Off
Versions: 1 2 3 4 5 6 7 8 9 10 11 12 13 14 15 16 17 18 19 20 21 22 23 24 25 26 27 28 29 30 31 32 33 34 35 36 37 38 39 40 41 42 43 44 45 46

000
ASUS45 KBOU 182007
RWRCO

WEATHER ROUNDUP FOR COLORADO
NATIONAL WEATHER SERVICE DENVER/BOULDER CO
200 PM MDT THU SEP 18 2014

NOTE: "FAIR" INDICATES FEW OR NO CLOUDS BELOW 12000 FEET WITH NO
SIGNIFICANT WEATHER AND/OR OBSTRUCTIONS TO VISIBILITY.

COZ001>005-013-030-031-182100-
...NORTHWEST COLORADO...

CITY           SKY/WX    TMP DP  RH WIND       PRES   REMARKS
CRAIG          SUNNY     84  37  18 NW7       30.04F
HAYDEN         SUNNY     81  32  17 N3        30.07F
MEEKER         SUNNY     82  34  17 VRB7      30.06F
MOUNT WERNER   NOT AVBL
STEAMBOAT SPGS SUNNY     79  34  19 NW5       30.10F
WALDEN         SUNNY     73  27  17 S6        30.20F
$$

COZ006>008-011-182100-
...WEST CENTRAL VALLEYS...

CITY           SKY/WX    TMP DP  RH WIND       PRES   REMARKS
GRAND JUNCTION SUNNY     84  44  24 W3        29.96F
MONTROSE       SUNNY     83  41  22 N8        30.03F
EAGLE          MOSUNNY   79  36  21 CALM      30.09F
RIFLE          SUNNY     82  39  21 W8        30.00F
DELTA          SUNNY     88  38  17 S5        29.98F
NUCLA          SUNNY     81  43  26 N5        30.08F
$$

COZ017>023-064>068-182100-
...SOUTHWEST COLORADO...

CITY           SKY/WX    TMP DP  RH WIND       PRES   REMARKS
DURANGO        SUNNY     80  29  15 SE9       30.10F
CORTEZ         SUNNY     80  46  30 S7        30.05F
PAGOSA SPRINGS SUNNY     79  23  12 SW9       30.16F
TELLURIDE      NOT AVBL
WOLF CREEK PAS PTSUNNY   57  30  35 CALM      30.49F
$$

COZ009-010-012-014-032>034-037-058>063-182100-
...CENTRAL COLORADO...

CITY           SKY/WX    TMP DP  RH WIND       PRES   REMARKS
ASPEN          SUNNY     79  31  17 NW12G17   30.14F
BUENA VISTA    SUNNY     78  26  15 SE8       30.19F
COPPER MTN     SUNNY     68  18  14 E10G17    30.50F
BERTHOUD PASS  FAIR      52  50  93 SE10      30.56F
COTTONWOOD PAS SUNNY     73   1   6 SE13G22   30.35F
GUNNISON       SUNNY     79  34  19 NE12G18   30.18F
KREMMLING      SUNNY     79  18  10 CALM      30.15F
LEADVILLE      SUNNY     68  24  19 S17G24    30.32F
MONARCH PASS   SUNNY     55  30  38 E15G24    30.60F
SALIDA         SUNNY     82  27  13 E8G16     30.23F
SUNLIGHT       MOSUNNY   64  36  34 N3        30.42F
WILKERSON PASS NOT AVBL
$$

COZ069>075-182100-
...SAN LUIS VALLEY/SANGRE DE CRISTO MOUNTAINS...

CITY           SKY/WX    TMP DP  RH WIND       PRES   REMARKS
ALAMOSA        SUNNY     78  32  18 CALM      30.16F
LA VETA PASS   SUNNY     68  28  22 NE15G26   30.38F
SAGUACHE       NOT AVBL
$$

COZ035-036-038>040-182100-
...NORTHERN COLORADO FRONT RANGE...

CITY           SKY/WX    TMP DP  RH WIND       PRES   REMARKS
DENVER INTL AP MOSUNNY   89  35  14 SW12G18   30.00F
DMNS CITY PARK   N/A     88  37  16 E5G12     29.98F
AURORA         MOSUNNY   86  35  16 E3        30.02F
FRONT RANGE AP MOSUNNY   90  36  14 SW3       30.01
ERIE MUNI ARPT SUNNY     89  29  12 SE5       29.98F
BOULDER MUN AP SUNNY     86  41  20 E5        29.98F
CENTENNIAL     MOSUNNY   85  32  15 VRB3      30.03F
BROOMFIELD     MOSUNNY   86  36  16 VRB6      30.02F
FORT COLLINS   SUNNY     88  45  22 SE6       29.97F
LONGMONT       SUNNY     91  41  17 E5        29.99F
$$

COZ041-046-047-076>085-087-088-182100-
...PIKES PEAK/PALMER DIVIDE AND SOUTHERN FOOTHILLS...

CITY           SKY/WX    TMP DP  RH WIND       PRES   REMARKS
COLO. SPRINGS  MOSUNNY   84  29  13 SE12G18   30.09F
A. F. ACADEMY  SUNNY     84  30  14 SE13      30.09F
ELLICOTT       NOT AVBL
FALCON         SUNNY     82  30  15 S8G18     30.15F
FORT CARSON    SUNNY     85  35  16 SE12G18   30.06F
LIMON          SUNNY     87  31  13 VRB7G18   30.01F
MONUMENT HILL  SUNNY     81  30  16 S13G21    30.13F
TRINIDAD       SUNNY     85  34  16 VRB7G22   30.06F
$$

COZ042>045-048>051-090-091-182100-
...NORTHEAST COLORADO...

CITY           SKY/WX    TMP DP  RH WIND       PRES   REMARKS
GREELEY ARPT   SUNNY     88  46  23 S7        29.96F
AKRON          SUNNY     86  51  29 S10       29.98F
BURLINGTON     SUNNY     86  53  32 S10       29.97F
WRAY           SUNNY     85  59  41 SE7G17    29.94F
STERLING       SUNNY     90  55  31 SE8       29.92F
HOLYOKE        SUNNY     79  63  57 SE12      29.95F
FORT MORGAN    SUNNY     88  44  22 SE5       29.96F
$$

COZ086-089-092>099-182100-
...SOUTHEAST COLORADO...

CITY           SKY/WX    TMP DP  RH WIND       PRES   REMARKS
PUEBLO         SUNNY     89  35  14 SE9       29.97F
LA JUNTA       SUNNY     92  36  14 S12G18    29.95F
LAMAR          SUNNY     94  42  16 SW13G24   29.91F
SPRINGFIELD      N/A     84  51  31 S13G24    30.00F
$$


USA.gov is the U.S. government's official web portal to all federal, state and local government web resources and services.